| time (UTC) | temp C | wind direction | speed KPH | gust KPH | rain 1hr cm | rain 24hr cm | rain mn cm | humidity % | barometer mb |
| 20260503223802 | 21 | 270 | 14.5 | 35.4 | 0.00 | 0.00 | 0.00 | 25 | 1004.6 |
| 20260503223259 | 21 | 295 | 9.7 | 27.4 | 0.00 | 0.00 | 0.00 | 25 | 1004.7 |
| 20260503222755 | 21 | 279 | 17.7 | 38.6 | 0.00 | 0.00 | 0.00 | 26 | 1004.6 |
| 20260503222254 | 21 | 275 | 19.3 | 33.8 | 0.00 | 0.00 | 0.00 | 26 | 1004.5 |
| 20260503221751 | 21 | 297 | 19.3 | 43.5 | 0.00 | 0.00 | 0.00 | 27 | 1004.5 |
| 20260503221249 | 21 | 303 | 20.9 | 32.2 | 0.00 | 0.00 | 0.00 | 27 | 1004.5 |
| 20260503220745 | 21 | 316 | 9.7 | 29.0 | 0.00 | 0.00 | 0.00 | 26 | 1004.3 |
| 20260503220242 | 22 | 306 | 20.9 | 24.1 | 0.00 | 0.00 | 0.00 | 28 | 1004.6 |
| 20260503215739 | 21 | 317 | 17.7 | 35.4 | 0.00 | 0.00 | 0.00 | 29 | 1004.4 |
| 20260503215236 | 21 | 268 | 24.1 | 38.6 | 0.00 | 0.00 | 0.00 | 30 | 1004.5 |
| 20260503214734 | 21 | 292 | 8.0 | 27.4 | 0.00 | 0.00 | 0.00 | 31 | 1004.3 |
| 20260503214231 | 21 | 0 | 12.9 | 27.4 | 0.00 | 0.00 | 0.00 | 33 | 1004.4 |
| 20260503213729 | 21 | 289 | 14.5 | 27.4 | 0.00 | 0.00 | 0.00 | 34 | 1004.5 |
| 20260503213226 | 21 | 278 | 19.3 | 29.0 | 0.00 | 0.00 | 0.00 | 36 | 1004.4 |
| 20260503212722 | 21 | 263 | 29.0 | 37.0 | 0.00 | 0.00 | 0.00 | 35 | 1004.4 |
| 20260503212220 | 21 | 332 | 22.5 | 35.4 | 0.00 | 0.00 | 0.00 | 35 | 1004.5 |
| 20260503211718 | 21 | 297 | 16.1 | 35.4 | 0.00 | 0.00 | 0.00 | 35 | 1004.2 |
| 20260503211213 | 21 | 328 | 12.9 | 27.4 | 0.00 | 0.00 | 0.00 | 35 | 1004.2 |
| 20260503210710 | 21 | 283 | 11.3 | 22.5 | 0.00 | 0.00 | 0.00 | 38 | 1004.3 |
| 20260503210207 | 21 | 321 | 19.3 | 33.8 | 0.00 | 0.00 | 0.00 | 36 | 1004.4 |
| 20260503205702 | 21 | 280 | 17.7 | 22.5 | 0.00 | 0.00 | 0.00 | 36 | 1004.3 |
| 20260503205158 | 21 | 318 | 20.9 | 33.8 | 0.00 | 0.00 | 0.00 | 35 | 1004.4 |
| 20260503204655 | 21 | 351 | 11.3 | 37.0 | 0.00 | 0.00 | 0.00 | 34 | 1004.6 |
| 20260503204153 | 21 | 352 | 12.9 | 29.0 | 0.00 | 0.00 | 0.00 | 34 | 1004.5 |
| 20260503203649 | 21 | 344 | 17.7 | 27.4 | 0.00 | 0.00 | 0.00 | 34 | 1004.7 |
| 20260503203147 | 21 | 285 | 12.9 | 25.7 | 0.00 | 0.00 | 0.00 | 35 | 1004.6 |
| 20260503202644 | 21 | 304 | 14.5 | 35.4 | 0.00 | 0.00 | 0.00 | 38 | 1004.9 |
| 20260503202142 | 21 | 300 | 19.3 | 32.2 | 0.00 | 0.00 | 0.00 | 37 | 1004.8 |
| 20260503201640 | 21 | 277 | 14.5 | 19.3 | 0.00 | 0.00 | 0.00 | 36 | 1004.8 |
| 20260503201137 | 21 | 307 | 22.5 | 38.6 | 0.00 | 0.00 | 0.00 | 36 | 1004.9 |
| 20260503200633 | 21 | 276 | 17.7 | 27.4 | 0.00 | 0.00 | 0.00 | 36 | 1004.7 |
| 20260503200130 | 21 | 271 | 20.9 | 24.1 | 0.00 | 0.00 | 0.00 | 35 | 1005.0 |
| 20260503195627 | 22 | 329 | 24.1 | 32.2 | 0.00 | 0.00 | 0.00 | 35 | 1005.0 |
| 20260503195124 | 21 | 240 | 11.3 | 22.5 | 0.00 | 0.00 | 0.00 | 36 | 1005.1 |
| 20260503194621 | 21 | 319 | 22.5 | 27.4 | 0.00 | 0.00 | 0.00 | 36 | 1005.0 |
| 20260503194116 | 21 | 347 | 22.5 | 22.5 | 0.00 | 0.00 | 0.00 | 36 | 1004.8 |
| 20260503193613 | 21 | 284 | 12.9 | 30.6 | 0.00 | 0.00 | 0.00 | 37 | 1004.9 |
| 20260503193108 | 21 | 282 | 22.5 | 35.4 | 0.00 | 0.00 | 0.00 | 36 | 1005.0 |
| 20260503192604 | 21 | 319 | 17.7 | 32.2 | 0.00 | 0.00 | 0.00 | 37 | 1004.6 |
| 20260503192100 | 20 | 268 | 9.7 | 16.1 | 0.00 | 0.00 | 0.00 | 38 | 1005.0 |
| 20260503191557 | 20 | 314 | 25.7 | 32.2 | 0.00 | 0.00 | 0.00 | 39 | 1005.1 |
| 20260503191054 | 20 | 303 | 19.3 | 32.2 | 0.00 | 0.00 | 0.00 | 39 | 1005.1 |
| 20260503190551 | 20 | 342 | 9.7 | 22.5 | 0.00 | 0.00 | 0.00 | 40 | 1005.0 |
| 20260503190048 | 20 | 308 | 14.5 | 24.1 | 0.00 | 0.00 | 0.00 | 41 | 1005.1 |
| 20260503185545 | 20 | 314 | 12.9 | 24.1 | 0.00 | 0.00 | 0.00 | 41 | 1005.2 |
| 20260503185044 | 21 | 301 | 11.3 | 27.4 | 0.00 | 0.00 | 0.00 | 41 | 1005.1 |
| 20260503184540 | 20 | 305 | 12.9 | 27.4 | 0.00 | 0.00 | 0.00 | 41 | 1005.4 |
| 20260503184037 | 20 | 266 | 20.9 | 32.2 | 0.00 | 0.00 | 0.00 | 41 | 1005.2 |
| 20260503183534 | 20 | 307 | 11.3 | 27.4 | 0.00 | 0.00 | 0.00 | 43 | 1005.3 |
| 20260503183031 | 20 | 290 | 8.0 | 19.3 | 0.00 | 0.00 | 0.00 | 42 | 1005.5 |
| 20260503182529 | 20 | 285 | 24.1 | 29.0 | 0.00 | 0.00 | 0.00 | 42 | 1005.4 |
| 20260503182027 | 20 | 267 | 9.7 | 20.9 | 0.00 | 0.00 | 0.00 | 42 | 1005.2 |
| 20260503181524 | 19 | 324 | 12.9 | 19.3 | 0.00 | 0.00 | 0.00 | 43 | 1005.6 |
| 20260503181020 | 19 | 322 | 8.0 | 16.1 | 0.00 | 0.00 | 0.00 | 42 | 1005.4 |
| 20260503180518 | 19 | 276 | 14.5 | 20.9 | 0.00 | 0.00 | 0.00 | 43 | 1005.6 |
| 20260503180015 | 18 | 314 | 4.8 | 11.3 | 0.00 | 0.00 | 0.00 | 43 | 1005.8 |
| 20260503175512 | 19 | 325 | 11.3 | 32.2 | 0.00 | 0.00 | 0.00 | 42 | 1005.8 |
| 20260503175009 | 18 | 290 | 8.0 | 20.9 | 0.00 | 0.00 | 0.00 | 45 | 1005.8 |
| 20260503174507 | 19 | 287 | 9.7 | 27.4 | 0.00 | 0.00 | 0.00 | 44 | 1006.1 |
| 20260503174002 | 18 | 320 | 8.0 | 25.7 | 0.00 | 0.00 | 0.00 | 45 | 1005.7 |
| 20260503173457 | 18 | 319 | 11.3 | 25.7 | 0.00 | 0.00 | 0.00 | 44 | 1005.7 |
| 20260503172954 | 18 | 283 | 8.0 | 12.9 | 0.00 | 0.00 | 0.00 | 45 | 1006.1 |
| 20260503172452 | 18 | 295 | 14.5 | 20.9 | 0.00 | 0.00 | 0.00 | 44 | 1006.3 |
| 20260503171948 | 18 | 320 | 4.8 | 22.5 | 0.00 | 0.00 | 0.00 | 44 | 1005.8 |
| 20260503171445 | 18 | 308 | 8.0 | 19.3 | 0.00 | 0.00 | 0.00 | 45 | 1006.2 |
| 20260503170943 | 17 | 304 | 11.3 | 29.0 | 0.00 | 0.00 | 0.00 | 44 | 1006.1 |
| 20260503170438 | 18 | 180 | 8.0 | 27.4 | 0.00 | 0.00 | 0.00 | 45 | 1006.2 |
| 20260503150831 | 16 | 274 | 6.4 | 19.3 | 0.00 | 0.00 | 0.00 | 46 | 1006.3 |
| 20260503150327 | 16 | 251 | 11.3 | 19.3 | 0.00 | 0.00 | 0.00 | 46 | 1006.4 |
| 20260503140251 | 15 | 239 | 14.5 | 27.4 | 0.00 | 0.00 | 0.00 | 48 | 1006.7 |
| 20260503131221 | 15 | 185 | 3.2 | 9.7 | 0.00 | 0.00 | 0.00 | 52 | 1006.6 |
| 20260503130719 | 15 | 255 | 4.8 | 4.8 | 0.00 | 0.00 | 0.00 | 52 | 1006.5 |
| 20260503130216 | 15 | 198 | 6.4 | 11.3 | 0.00 | 0.00 | 0.00 | 52 | 1006.8 |
| 20260503120141 | 11 | 154 | 8.0 | 11.3 | 0.00 | 0.00 | 0.00 | 64 | 1006.5 |
| 20260503110609 | 10 | 157 | 8.0 | 9.7 | 0.00 | 0.00 | 0.00 | 70 | 1006.9 |
| 20260503110107 | 10 | 160 | 4.8 | 8.0 | 0.00 | 0.00 | 0.00 | 73 | 1006.9 |
| 20260503090456 | 11 | 180 | 1.6 | 9.7 | 0.00 | 0.00 | 0.00 | 55 | 1007.3 |
| 20260503081422 | 12 | 232 | 4.8 | 8.0 | 0.00 | 0.00 | 0.00 | 54 | 1008.0 |
| 20260503080920 | 12 | 221 | 8.0 | 8.0 | 0.00 | 0.00 | 0.00 | 54 | 1008.4 |
| 20260503080416 | 12 | 174 | 0.0 | 4.8 | 0.00 | 0.00 | 0.00 | 54 | 1008.1 |
| 20260503072852 | 12 | 184 | 6.4 | 9.7 | 0.00 | 0.00 | 0.00 | 54 | 1008.3 |
| 20260503072349 | 12 | 214 | 4.8 | 11.3 | 0.00 | 0.00 | 0.00 | 54 | 1008.6 |
| 20260503071846 | 12 | 178 | 4.8 | 6.4 | 0.00 | 0.00 | 0.00 | 55 | 1008.6 |
| 20260503071343 | 12 | 172 | 4.8 | 11.3 | 0.00 | 0.00 | 0.00 | 56 | 1008.9 |
| 20260503070839 | 12 | 230 | 4.8 | 9.7 | 0.00 | 0.00 | 0.00 | 58 | 1008.6 |
| 20260503070337 | 12 | 200 | 1.6 | 3.2 | 0.00 | 0.00 | 0.00 | 59 | 1008.8 |
| 20260503060303 | 13 | 188 | 0.0 | 4.8 | 0.00 | 0.00 | 0.00 | 59 | 1009.6 |
| 20260503054750 | 14 | 253 | 3.2 | 11.3 | 0.00 | 0.00 | 0.00 | 54 | 1010.1 |
| 20260503054246 | 13 | 266 | 3.2 | 9.7 | 0.00 | 0.00 | 0.00 | 58 | 1010.2 |
| 20260503053744 | 14 | 193 | 0.0 | 4.8 | 0.00 | 0.00 | 0.00 | 52 | 1010.3 |
| 20260503053243 | 14 | 260 | 6.4 | 6.4 | 0.00 | 0.00 | 0.00 | 51 | 1010.3 |
| 20260503052738 | 14 | 257 | 6.4 | 8.0 | 0.00 | 0.00 | 0.00 | 51 | 1010.2 |
| 20260503052235 | 14 | 252 | 3.2 | 8.0 | 0.00 | 0.00 | 0.00 | 51 | 1010.4 |
| 20260503051730 | 14 | 239 | 4.8 | 8.0 | 0.00 | 0.00 | 0.00 | 51 | 1010.4 |
| 20260503051228 | 14 | 226 | 3.2 | 6.4 | 0.00 | 0.00 | 0.00 | 50 | 1010.3 |
| 20260503050724 | 15 | 257 | 4.8 | 12.9 | 0.00 | 0.00 | 0.00 | 50 | 1010.2 |
| 20260503050221 | 15 | 200 | 3.2 | 9.7 | 0.00 | 0.00 | 0.00 | 50 | 1010.4 |
| 20260503045719 | 15 | 235 | 4.8 | 12.9 | 0.00 | 0.00 | 0.00 | 49 | 1010.3 |
| 20260503045216 | 15 | 184 | 3.2 | 9.7 | 0.00 | 0.00 | 0.00 | 50 | 1009.9 |
| 20260503044712 | 14 | 239 | 6.4 | 14.5 | 0.00 | 0.00 | 0.00 | 49 | 1010.5 |
| 20260503044210 | 15 | 246 | 9.7 | 11.3 | 0.00 | 0.00 | 0.00 | 49 | 1010.6 |
| 20260503043706 | 15 | 277 | 4.8 | 9.7 | 0.00 | 0.00 | 0.00 | 48 | 1010.3 |
| 20260503043204 | 15 | 255 | 12.9 | 12.9 | 0.00 | 0.00 | 0.00 | 48 | 1010.7 |
| 20260503042700 | 15 | 266 | 4.8 | 11.3 | 0.00 | 0.00 | 0.00 | 48 | 1010.7 |
| 20260503042156 | 15 | 195 | 3.2 | 6.4 | 0.00 | 0.00 | 0.00 | 48 | 1010.7 |
| 20260503041652 | 14 | 200 | 1.6 | 6.4 | 0.00 | 0.00 | 0.00 | 48 | 1010.6 |
| 20260503041150 | 15 | 223 | 1.6 | 6.4 | 0.00 | 0.00 | 0.00 | 48 | 1010.8 |
| 20260503040648 | 14 | 221 | 3.2 | 4.8 | 0.00 | 0.00 | 0.00 | 48 | 1010.7 |
| 20260503040145 | 15 | 200 | 1.6 | 6.4 | 0.00 | 0.00 | 0.00 | 47 | 1010.8 |
| 20260503035641 | 15 | 188 | 0.0 | 8.0 | 0.00 | 0.00 | 0.00 | 47 | 1011.1 |
| 20260503035139 | 15 | 257 | 4.8 | 9.7 | 0.00 | 0.00 | 0.00 | 47 | 1010.7 |
| 20260503034637 | 14 | 268 | 3.2 | 6.4 | 0.00 | 0.00 | 0.00 | 47 | 1011.2 |
| 20260503034133 | 14 | 245 | 3.2 | 6.4 | 0.00 | 0.00 | 0.00 | 47 | 1011.3 |
| 20260503033630 | 14 | 263 | 0.0 | 6.4 | 0.00 | 0.00 | 0.00 | 48 | 1011.4 |
| 20260503033128 | 13 | 233 | 3.2 | 6.4 | 0.00 | 0.00 | 0.00 | 50 | 1011.3 |
| 20260503032626 | 13 | 176 | 3.2 | 3.2 | 0.00 | 0.00 | 0.00 | 49 | 1011.5 |
| 20260503032125 | 13 | 167 | 3.2 | 4.8 | 0.00 | 0.00 | 0.00 | 49 | 1011.7 |
| 20260503031622 | 13 | 237 | 3.2 | 8.0 | 0.00 | 0.00 | 0.00 | 49 | 1011.6 |
| 20260503031119 | 13 | 224 | 3.2 | 8.0 | 0.00 | 0.00 | 0.00 | 49 | 1011.5 |
| 20260503030615 | 13 | 247 | 4.8 | 8.0 | 0.00 | 0.00 | 0.00 | 49 | 1011.6 |
| 20260503030112 | 14 | 271 | 6.4 | 6.4 | 0.00 | 0.00 | 0.00 | 48 | 1011.7 |
| 20260503025609 | 14 | 200 | 0.0 | 4.8 | 0.00 | 0.00 | 0.00 | 48 | 1011.8 |
| 20260503025107 | 14 | 200 | 0.0 | 3.2 | 0.00 | 0.00 | 0.00 | 47 | 1011.6 |
| 20260503024603 | 14 | 215 | 0.0 | 4.8 | 0.00 | 0.00 | 0.00 | 47 | 1011.7 |
| 20260503024100 | 14 | 188 | 3.2 | 4.8 | 0.00 | 0.00 | 0.00 | 46 | 1011.9 |
| 20260503023557 | 14 | 219 | 3.2 | 3.2 | 0.00 | 0.00 | 0.00 | 46 | 1011.7 |
| 20260503023054 | 14 | 219 | 3.2 | 6.4 | 0.00 | 0.00 | 0.00 | 46 | 1011.9 |
| 20260503022550 | 14 | 188 | 1.6 | 4.8 | 0.00 | 0.00 | 0.00 | 45 | 1011.8 |
| 20260503022045 | 14 | 215 | 0.0 | 4.8 | 0.00 | 0.00 | 0.00 | 46 | 1011.8 |
| 20260503021542 | 14 | 228 | 3.2 | 4.8 | 0.00 | 0.00 | 0.00 | 45 | 1011.8 |
| 20260503021039 | 14 | 212 | 1.6 | 8.0 | 0.00 | 0.00 | 0.00 | 45 | 1011.9 |
| 20260503020536 | 14 | 200 | 1.6 | 4.8 | 0.00 | 0.00 | 0.00 | 46 | 1011.9 |
| 20260503020033 | 14 | 179 | 0.0 | 4.8 | 0.00 | 0.00 | 0.00 | 45 | 1011.8 |
| 20260503015529 | 14 | 219 | 3.2 | 4.8 | 0.00 | 0.00 | 0.00 | 45 | 1011.8 |
| 20260503015027 | 14 | 212 | 1.6 | 4.8 | 0.00 | 0.00 | 0.00 | 45 | 1011.8 |
| 20260503014522 | 14 | 174 | 3.2 | 4.8 | 0.00 | 0.00 | 0.00 | 45 | 1011.8 |
| 20260503014021 | 14 | 214 | 3.2 | 4.8 | 0.00 | 0.00 | 0.00 | 45 | 1011.7 |
| 20260503013518 | 14 | 221 | 3.2 | 6.4 | 0.00 | 0.00 | 0.00 | 45 | 1011.7 |
| 20260503013015 | 15 | 189 | 1.6 | 9.7 | 0.00 | 0.00 | 0.00 | 44 | 1011.7 |
| 20260503012513 | 15 | 210 | 4.8 | 4.8 | 0.00 | 0.00 | 0.00 | 45 | 1011.9 |
| 20260503012009 | 15 | 184 | 3.2 | 6.4 | 0.00 | 0.00 | 0.00 | 44 | 1011.9 |
| 20260503011506 | 15 | 205 | 1.6 | 4.8 | 0.00 | 0.00 | 0.00 | 44 | 1011.9 |
| 20260503011003 | 15 | 182 | 3.2 | 6.4 | 0.00 | 0.00 | 0.00 | 44 | 1011.7 |
| 20260503010459 | 15 | 185 | 6.4 | 6.4 | 0.00 | 0.00 | 0.00 | 43 | 1012.0 |
| 20260503005956 | 15 | 232 | 4.8 | 6.4 | 0.00 | 0.00 | 0.00 | 43 | 1012.1 |
| 20260503005453 | 15 | 203 | 4.8 | 8.0 | 0.00 | 0.00 | 0.00 | 42 | 1011.9 |
| 20260503004950 | 15 | 218 | 4.8 | 4.8 | 0.00 | 0.00 | 0.00 | 42 | 1011.9 |
| 20260503004447 | 15 | 181 | 0.0 | 4.8 | 0.00 | 0.00 | 0.00 | 41 | 1012.0 |
| 20260503003945 | 15 | 210 | 3.2 | 9.7 | 0.00 | 0.00 | 0.00 | 41 | 1012.0 |
| 20260503003441 | 16 | 194 | 4.8 | 4.8 | 0.00 | 0.00 | 0.00 | 40 | 1012.1 |
| 20260503002938 | 16 | 196 | 3.2 | 6.4 | 0.00 | 0.00 | 0.00 | 40 | 1012.2 |
| 20260503002435 | 16 | 216 | 0.0 | 8.0 | 0.00 | 0.00 | 0.00 | 40 | 1012.2 |
| 20260503001932 | 16 | 271 | 0.0 | 11.3 | 0.00 | 0.00 | 0.00 | 40 | 1012.2 |
| 20260503001428 | 16 | 225 | 6.4 | 8.0 | 0.00 | 0.00 | 0.00 | 39 | 1012.4 |
| 20260503000926 | 16 | 223 | 4.8 | 8.0 | 0.00 | 0.00 | 0.00 | 40 | 1012.3 |
| 20260503000423 | 16 | 236 | 4.8 | 9.7 | 0.00 | 0.00 | 0.00 | 39 | 1012.3 |
| 20260502235920 | 16 | 239 | 6.4 | 14.5 | 0.00 | 0.00 | 0.00 | 39 | 1012.3 |
| 20260502235417 | 16 | 259 | 6.4 | 17.7 | 0.00 | 0.00 | 0.00 | 39 | 1012.6 |
| 20260502234914 | 16 | 228 | 4.8 | 11.3 | 0.00 | 0.00 | 0.00 | 39 | 1012.5 |
| 20260502234411 | 16 | 261 | 9.7 | 20.9 | 0.00 | 0.00 | 0.00 | 39 | 1012.5 |
| 20260502233908 | 16 | 243 | 8.0 | 17.7 | 0.00 | 0.00 | 0.00 | 39 | 1012.6 |
| 20260502233403 | 16 | 235 | 9.7 | 17.7 | 0.00 | 0.00 | 0.00 | 38 | 1012.7 |
| 20260502232900 | 16 | 277 | 16.1 | 20.9 | 0.00 | 0.00 | 0.00 | 38 | 1012.9 |
| 20260502232357 | 16 | 257 | 8.0 | 11.3 | 0.00 | 0.00 | 0.00 | 39 | 1012.9 |
| 20260502231854 | 16 | 241 | 11.3 | 17.7 | 0.00 | 0.00 | 0.00 | 39 | 1013.0 |
| 20260502231351 | 16 | 205 | 4.8 | 19.3 | 0.00 | 0.00 | 0.00 | 39 | 1012.9 |
| 20260502230849 | 16 | 278 | 12.9 | 29.0 | 0.00 | 0.00 | 0.00 | 38 | 1013.0 |
| 20260502230347 | 16 | 265 | 17.7 | 19.3 | 0.00 | 0.00 | 0.00 | 38 | 1012.9 |
| 20260502225844 | 16 | 287 | 17.7 | 25.7 | 0.00 | 0.00 | 0.00 | 38 | 1013.1 |
| 20260502225340 | 16 | 282 | 9.7 | 24.1 | 0.00 | 0.00 | 0.00 | 38 | 1013.2 |
| 20260502224838 | 16 | 301 | 17.7 | 27.4 | 0.00 | 0.00 | 0.00 | 38 | 1013.0 |
| 20260502224334 | 16 | 269 | 19.3 | 27.4 | 0.00 | 0.00 | 0.00 | 37 | 1013.3 |